User: anonymous   Login
Location: Newark
(54.6833°N, 25.2833°E)
Time: 03:31:20
(UTC+00:00)
Language:

PRISM - Orbit

View from above orbital plane
View from above orbital plane
View from above satellite
View from above satellite

Ground track
Ground track

The orbit data is extracted from the following two-line orbital elements,

1 33493U 09002B   20296.44364775  .00000735  00000-0  69044-4 0  9994
2 33493 098.1553 242.0782 0015160 359.1532 000.9660 14.97182727638704
Epoch (UTC): 22 October 2020 10:38:51
Eccentricity: 0.0015160
inclination: 98.1553°
perigee height: 565 km
apogee height: 586 km
right ascension of ascending node: 242.0782°
argument of perigee: 359.1532°
revolutions per day: 14.97182727
mean anomaly at epoch: 0.9660°
orbit number at epoch: 63870

The dashed part of the orbit path shows where the satellite is in the earth's shadow,  

DLR